{"data":{"norad_id":45344,"intl_designator":"2020-017A","name":"BEIDOU-3 G2 (PRN 144)","alt_names":[],"object_type":"PAYLOAD","status":"ACTIVE","operator":null,"country":"PRC","launch_date":"2020-03-09","launch_site_code":"XICLF","launch_vehicle":null,"mission":null,"orbit_class":"UNKNOWN","rcs_meters":null,"size_class":null,"mass_kg":null,"dimensions":null,"purposes":["comms","nav"],"wikipedia_slug":null,"has_3d_model":false,"image_url":null,"decayed_at":null,"tle_current":{"epoch":"2026-09-20T03:36:55.923264Z","epoch_age_seconds":48533,"freshness":"FRESH","line1":"1 45344U 20017A   26263.15064726 -.00000143  00000+0  00000+0 0  9997","line2":"2 45344   2.5966  48.5054 0002223 127.9358 316.9159  1.00272480 24217","mean_motion":1.0027248,"eccentricity":0.0002223,"inclination_deg":2.5966,"raan_deg":48.5054,"arg_perigee_deg":127.9358,"mean_anomaly_deg":316.9159,"bstar":0,"rev_number":2421,"period_min":1436.0869502779,"perigee_km":35777.026951983,"apogee_km":35795.77330519,"semimajor_km":42164.537128587,"source":"CELESTRAK","updated_at":"2026-09-20T09:00:46.839207Z"}}}